Date String (YYYY-MM-DD hh:mm:ss) UTC,Instrument flags,Ambient pressure (hPa),Sample flow (lpm),Bypass flow (lpm),Sample temperature (°C),Ambient temperature (°C),ASC tube jacket temperature (°C),LED temperature (°C),Box temperature (°C),Sample RH (%),Span deviation,Mass concentration (μg/m³),Mass concentration (μg/m³),Mass concentration (μg/m³)
DateTimeUTC,F1_M11,P_M11,Q1_M11,Q2_M11,T1_M11,T2_M11,T3_M11,T4_M11,T5_M11,U1_M11,ZSPAN_M11,X2_M11,X0_M11,X1_M11
2022-01-19 08:00:00,,0826.0,4.99,0.00,22.8,22.7,00.0,31.7,24.6,14.4,0000.0,0004.01,0006.34,0003.70
2022-01-19 08:01:00,,0826.0,5.01,0.00,22.8,22.6,00.0,31.7,24.6,14.4,0000.0,0004.05,0006.50,0003.70
2022-01-19 08:02:00,,0826.0,4.98,0.00,22.8,22.5,00.0,31.7,24.6,14.4,0000.0,0004.06,0007.26,0003.69
2022-01-19 08:03:00,,0826.0,5.01,0.00,22.8,22.4,00.0,31.7,24.6,14.4,0000.0,0004.04,0007.19,0003.70
2022-01-19 08:04:00,,0826.0,4.99,0.00,22.7,22.3,00.0,31.7,24.5,14.5,0000.0,0004.05,0007.36,0003.71
2022-01-19 08:05:00,,0826.0,5.00,0.00,22.7,22.2,00.0,31.7,24.5,14.5,0000.0,0004.05,0007.45,0003.71
2022-01-19 08:06:00,,0826.0,5.00,0.00,22.7,22.2,00.0,31.7,24.5,14.5,0000.0,0004.08,0007.56,0003.72
2022-01-19 08:07:00,,0826.0,4.99,0.00,22.7,22.1,00.0,31.7,24.4,14.5,0000.0,0004.08,0007.56,0003.72
2022-01-19 08:08:00,,0826.0,5.01,0.00,22.7,22.1,00.0,31.7,24.5,14.5,0000.0,0004.09,0007.60,0003.72
2022-01-19 08:09:00,,0826.0,4.98,0.00,22.7,22.0,00.0,31.7,24.4,14.5,0000.0,0004.13,0007.66,0003.74
2022-01-19 08:10:00,,0826.0,5.02,0.00,22.7,22.0,00.0,31.7,24.4,14.6,0000.0,0004.15,0007.67,0003.75
2022-01-19 08:11:00,,0826.0,4.99,0.00,22.7,22.0,00.0,31.7,24.4,14.6,0000.0,0004.19,0007.75,0003.77
2022-01-19 08:12:00,,0826.0,5.02,0.00,22.7,22.0,00.0,31.6,24.4,14.6,0000.0,0004.19,0007.71,0003.77
2022-01-19 08:13:00,,0826.0,4.98,0.00,22.6,21.9,00.0,31.6,24.4,14.6,0000.0,0004.17,0007.18,0003.78
2022-01-19 08:14:00,,0826.1,5.02,0.00,22.6,21.9,00.0,31.6,24.3,14.6,0000.0,0004.18,0006.98,0003.79
2022-01-19 08:15:00,,0826.0,4.99,0.00,22.6,21.9,00.0,31.6,24.3,14.6,0000.0,0004.18,0006.67,0003.81
2022-01-19 08:16:00,,0826.0,5.02,0.00,22.6,21.9,00.0,31.6,24.3,14.6,0000.0,0004.21,0007.32,0003.84
2022-01-19 08:17:00,,0826.0,4.99,0.00,22.6,21.8,00.0,31.6,24.3,14.6,0000.0,0004.25,0007.36,0003.88
2022-01-19 08:18:00,,0826.0,5.01,0.00,22.5,21.8,00.0,31.6,24.2,14.6,0000.0,0004.28,0007.38,0003.93
2022-01-19 08:19:00,,0826.1,5.00,0.00,22.5,21.8,00.0,31.6,24.2,14.7,0000.0,0004.33,0007.43,0003.98
2022-01-19 08:20:00,,0826.1,4.99,0.00,22.5,21.8,00.0,31.5,24.2,14.6,0000.0,0004.35,0007.43,0004.01
2022-01-19 08:21:00,,0826.1,5.01,0.00,22.5,21.8,00.0,31.5,24.2,14.7,0000.0,0004.36,0007.42,0004.04
2022-01-19 08:22:00,,0826.1,4.99,0.00,22.5,21.7,00.0,31.5,24.2,14.7,0000.0,0004.37,0007.39,0004.08
2022-01-19 08:23:00,,0826.1,5.01,0.00,22.5,21.7,00.0,31.5,24.2,14.7,0000.0,0004.39,0007.51,0004.12
2022-01-19 08:24:00,,0826.2,5.01,0.00,22.4,21.7,00.0,31.5,24.1,14.7,0000.0,0004.46,0007.95,0004.16
2022-01-19 08:25:00,,0826.2,5.01,0.00,22.5,22.2,00.0,31.5,24.3,14.7,0000.0,0004.47,0008.06,0004.20
2022-01-19 08:26:00,,0826.2,5.00,0.00,22.6,23.0,00.0,31.5,24.5,14.6,0000.0,0004.50,0008.62,0004.22
2022-01-19 08:27:00,,0826.2,5.00,0.00,22.7,23.4,00.0,31.6,24.7,14.5,0000.0,0004.52,0008.22,0004.23
2022-01-19 08:28:00,,0826.2,4.99,0.00,22.8,23.1,00.0,31.6,24.7,14.5,0000.0,0004.52,0008.24,0004.23
2022-01-19 08:29:00,,0826.2,5.00,0.00,22.8,23.0,00.0,31.6,24.7,14.5,0000.0,0004.56,0008.39,0004.25
2022-01-19 08:30:00,,0826.3,5.01,0.00,22.8,22.8,00.0,31.6,24.6,14.5,0000.0,0004.58,0008.76,0004.26
2022-01-19 08:31:00,,0826.2,5.00,0.00,22.7,22.6,00.0,31.6,24.6,14.5,0000.0,0004.59,0008.78,0004.27
2022-01-19 08:32:00,,0826.2,5.00,0.00,22.7,22.5,00.0,31.6,24.5,14.5,0000.0,0004.61,0009.33,0004.29
2022-01-19 08:33:00,,0826.3,5.01,0.00,22.7,22.4,00.0,31.6,24.5,14.5,0000.0,0004.65,0009.56,0004.32
2022-01-19 08:34:00,,0826.3,5.00,0.00,22.7,22.3,00.0,31.6,24.4,14.5,0000.0,0004.65,0009.44,0004.33
2022-01-19 08:35:00,,0826.3,4.99,0.00,22.7,22.2,00.0,31.6,24.4,14.5,0000.0,0004.64,0009.06,0004.34
2022-01-19 08:36:00,,0826.3,5.02,0.00,22.6,22.1,00.0,31.6,24.3,14.5,0000.0,0004.67,0009.25,0004.36
2022-01-19 08:37:00,,0826.3,5.01,0.00,22.6,22.1,00.0,31.6,24.3,14.5,0000.0,0004.71,0008.99,0004.38
2022-01-19 08:38:00,,0826.3,5.01,0.00,22.6,22.0,00.0,31.6,24.3,14.5,0000.0,0004.72,0008.95,0004.40
2022-01-19 08:39:00,,0826.3,4.99,0.00,22.6,22.0,00.0,31.6,24.3,14.5,0000.0,0004.75,0008.93,0004.41
2022-01-19 08:40:00,,0826.3,5.01,0.00,22.6,22.0,00.0,31.6,24.3,14.6,0000.0,0004.76,0008.87,0004.42
2022-01-19 08:41:00,,0826.3,4.98,0.00,22.6,21.9,00.0,31.6,24.3,14.6,0000.0,0004.78,0008.97,0004.44
2022-01-19 08:42:00,,0826.3,5.01,0.00,22.6,21.9,00.0,31.6,24.3,14.5,0000.0,0004.82,0009.00,0004.47
2022-01-19 08:43:00,,0826.3,5.00,0.00,22.5,21.9,00.0,31.6,24.2,14.6,0000.0,0004.82,0008.37,0004.47
2022-01-19 08:44:00,,0826.3,5.01,0.00,22.5,21.8,00.0,31.6,24.2,14.6,0000.0,0004.80,0008.23,0004.46
2022-01-19 08:45:00,,0826.2,4.99,0.00,22.5,21.8,00.0,31.5,24.1,14.6,0000.0,0004.82,0008.29,0004.46
2022-01-19 08:46:00,,0826.2,5.00,0.00,22.4,21.7,00.0,31.5,24.1,14.6,0000.0,0004.85,0008.37,0004.48
2022-01-19 08:47:00,,0826.3,4.99,0.00,22.4,21.7,00.0,31.5,24.1,14.6,0000.0,0004.85,0009.03,0004.47
2022-01-19 08:48:00,,0826.3,5.01,0.00,22.4,21.7,00.0,31.5,24.1,14.7,0000.0,0004.83,0009.49,0004.45
2022-01-19 08:49:00,,0826.3,5.01,0.00,22.4,21.7,00.0,31.5,24.1,14.7,0000.0,0004.81,0009.47,0004.44
2022-01-19 08:50:00,,0826.3,4.99,0.00,22.4,21.8,00.0,31.5,24.1,14.7,0000.0,0004.78,0009.52,0004.42
2022-01-19 08:51:00,,0826.3,4.99,0.00,22.5,22.5,00.0,31.5,24.3,14.7,0000.0,0004.75,0009.94,0004.40
2022-01-19 08:52:00,,0826.3,5.00,0.00,22.6,23.2,00.0,31.5,24.6,14.5,0000.0,0004.74,0009.55,0004.38
2022-01-19 08:53:00,,0826.3,5.01,0.00,22.7,23.3,00.0,31.6,24.7,14.4,0000.0,0004.72,0009.55,0004.37
2022-01-19 08:54:00,,0826.3,5.01,0.00,22.7,23.1,00.0,31.6,24.7,14.4,0000.0,0004.72,0009.57,0004.37
2022-01-19 08:55:00,,0826.2,4.99,0.00,22.7,22.9,00.0,31.6,24.6,14.4,0000.0,0004.74,0009.59,0004.38
2022-01-19 08:56:00,,0826.3,5.00,0.00,22.7,22.7,00.0,31.6,24.6,14.4,0000.0,0004.72,0009.58,0004.38
2022-01-19 08:57:00,,0826.3,5.02,0.00,22.7,22.6,00.0,31.6,24.5,14.4,0000.0,0004.67,0009.52,0004.35
2022-01-19 08:58:00,,0826.2,4.99,0.00,22.7,22.5,00.0,31.6,24.5,14.4,0000.0,0004.66,0008.47,0004.36
2022-01-19 08:59:00,,0826.2,5.01,0.00,22.7,22.4,00.0,31.6,24.4,14.5,0000.0,0004.67,0007.90,0004.38
